FW1762 Weather Reports


time (UTC)temp
C
wind
direction
speed
KPH
gust
KPH
rain 1hr
cm
rain 24hr
cm
rain mn
cm
humidity
%
barometer
mb
20260505184037 14 200 0.0 0.0 0.00 0.00 0.00 69 1011.2
20260505183611 14 305 0.0 0.0 0.00 0.00 0.00 69 1011.2
20260505183142 14 28 0.0 0.0 0.00 0.00 0.00 69 1011.2
20260505182713 14 297 0.0 0.0 0.00 0.00 0.00 68 1011.2
20260505182242 14 238 0.0 0.0 0.00 0.00 0.00 68 1011.2
20260505181813 15 342 0.0 0.0 0.00 0.00 0.00 68 1011.2
20260505181037 15 293 0.0 0.0 0.00 0.00 0.00 69 1011.2
20260505180541 15 275 0.0 0.0 0.00 0.00 0.00 69 1011.2
20260505180038 15 288 0.0 0.0 0.00 0.00 0.00 68 1011.2
20260505175614 15 261 0.0 0.0 0.00 0.00 0.00 68 1011.2
20260505175212 15 258 0.0 0.0 0.00 0.00 0.00 68 1011.2
20260505174738 15 259 0.0 0.0 0.00 0.00 0.00 68 1011.2
20260505174314 15 159 0.0 0.0 0.00 0.00 0.00 68 1011.2
20260505173542 15 292 0.0 0.0 0.00 0.00 0.00 69 1011.2
20260505173036 15 292 0.0 0.0 0.00 0.00 0.00 68 1011.2
20260505172533 15 281 0.0 0.0 0.00 0.00 0.00 69 1011.2
20260505172035 15 243 0.0 0.0 0.00 0.00 0.00 68 1011.5
20260505171535 15 298 0.0 0.0 0.00 0.00 0.00 68 1011.5
20260505171036 15 288 0.0 0.0 0.00 0.00 0.00 67 1011.5
20260505170534 15 304 0.0 0.0 0.00 0.00 0.00 67 1011.5
20260505170035 15 304 0.0 0.0 0.00 0.00 0.00 66 1011.5
20260505165534 15 280 0.0 0.0 0.00 0.00 0.00 66 1011.5
20260505165035 15 282 0.0 0.0 0.00 0.00 0.00 66 1011.5
20260505164533 15 266 0.0 0.0 0.00 0.00 0.00 65 1011.2
20260505164036 15 299 0.0 0.0 0.00 0.00 0.00 65 1011.2
20260505163535 16 302 0.0 0.0 0.00 0.00 0.00 64 1011.2
20260505163038 16 305 0.0 0.0 0.00 0.00 0.00 64 1011.2
20260505162547 16 316 0.0 0.0 0.00 0.00 0.00 63 1011.2
20260505162035 16 246 0.0 0.0 0.00 0.00 0.00 63 1011.2
20260505161534 16 242 0.0 0.0 0.00 0.00 0.00 64 1011.5
20260505161034 16 242 0.0 0.0 0.00 0.00 0.00 63 1011.5
20260505160536 16 238 0.0 0.0 0.00 0.00 0.00 63 1011.2
20260505153035 16 313 0.0 0.0 0.00 0.00 0.00 63 1011.5
20260505152536 16 192 0.0 0.0 0.00 0.00 0.00 64 1011.5
20260505152033 16 184 0.0 0.0 0.00 0.00 0.00 64 1011.5
20260505151534 16 270 0.0 0.0 0.00 0.00 0.00 63 1011.5
20260505151030 16 282 0.0 0.0 0.00 0.00 0.00 63 1011.5
20260505150533 16 304 0.0 0.0 0.00 0.00 0.00 63 1011.9
20260505140642 16 346 0.0 0.0 0.00 0.00 0.00 60 1011.9
20260505140232 16 5 0.0 0.0 0.00 0.00 0.00 60 1011.9
20260505125028 16 254 0.0 0.0 0.00 0.00 0.00 59 1012.2
20260505124530 16 143 0.0 0.0 0.00 0.00 0.00 60 1012.2
20260505124030 16 330 0.0 0.0 0.00 0.00 0.00 61 1012.2
20260505123530 16 51 0.0 0.0 0.00 0.00 0.00 60 1012.2
20260505123027 16 42 0.0 0.0 0.00 0.00 0.00 61 1012.2
20260505122528 16 111 0.0 0.0 0.00 0.00 0.00 62 1012.2
20260505122029 16 169 0.0 0.0 0.00 0.00 0.00 62 1012.2
20260505121527 16 334 1.6 1.6 0.00 0.00 0.00 63 1012.2
20260505121032 16 72 1.6 1.6 0.00 0.00 0.00 62 1012.2
20260505120527 16 47 0.0 0.0 0.00 0.00 0.00 63 1012.2
20260505120027 16 306 0.0 0.0 0.00 0.00 0.00 63 1012.2
20260505115528 16 223 0.0 0.0 0.00 0.00 0.00 66 1012.2
20260505115042 16 52 0.0 0.0 0.00 0.00 0.00 66 1012.2
20260505114626 16 219 0.0 0.0 0.00 0.00 0.00 66 1012.2
20260505114141 15 236 0.0 0.0 0.00 0.00 0.00 67 1012.2
20260505113741 15 5 0.0 0.0 0.00 0.00 0.00 68 1012.2
20260505113328 15 42 0.0 0.0 0.00 0.00 0.00 71 1012.5
20260505112526 15 333 0.0 0.0 0.00 0.00 0.00 70 1012.5
20260505112027 15 212 0.0 0.0 0.00 0.00 0.00 70 1012.5
20260505111527 15 105 1.6 1.6 0.00 0.00 0.00 70 1012.5
20260505111040 15 58 0.0 0.0 0.00 0.00 0.00 69 1012.5
20260505110638 15 269 0.0 6.4 0.00 0.00 0.00 73 1012.5
20260505110235 15 308 0.0 0.0 0.00 0.00 0.00 72 1012.9
20260505102026 13 350 0.0 0.0 0.00 0.00 0.00 79 1013.2
20260505101526 13 236 0.0 0.0 0.00 0.00 0.00 79 1013.2
20260505101025 12 268 0.0 0.0 0.00 0.00 0.00 80 1013.2
20260505100526 12 310 0.0 0.0 0.00 0.00 0.00 81 1013.2
20260505100026 12 116 0.0 0.0 0.00 0.00 0.00 81 1013.2
20260505095525 12 304 0.0 0.0 0.00 0.00 0.00 81 1013.2
20260505095023 12 200 0.0 0.0 0.00 0.00 0.00 81 1013.2
20260505094524 12 34 0.0 3.2 0.00 0.00 0.00 81 1013.2
20260505094041 12 86 0.0 3.2 0.00 0.00 0.00 81 1013.2
20260505093624 12 67 0.0 1.6 0.00 0.00 0.00 81 1013.2
20260505093223 12 330 1.6 1.6 0.00 0.00 0.00 81 1013.2
20260505092743 12 31 1.6 3.2 0.00 0.00 0.00 81 1013.2
20260505092324 12 254 0.0 0.0 0.00 0.00 0.00 82 1013.2
20260505091525 12 244 1.6 1.6 0.00 0.00 0.00 81 1013.2
20260505091036 12 355 1.6 1.6 0.00 0.00 0.00 81 1013.2
20260505090625 12 92 0.0 1.6 0.00 0.00 0.00 81 1013.2
20260505085523 12 227 0.0 0.0 0.00 0.00 0.00 83 1013.2
20260505085043 12 227 0.0 0.0 0.00 0.00 0.00 83 1013.2
20260505084639 12 226 0.0 0.0 0.00 0.00 0.00 84 1013.2
20260505084222 12 227 0.0 0.0 0.00 0.00 0.00 83 1013.5
20260505083745 12 134 0.0 0.0 0.00 0.00 0.00 84 1013.2
20260505083322 12 102 0.0 0.0 0.00 0.00 0.00 84 1013.5
20260505082524 12 144 0.0 0.0 0.00 0.00 0.00 85 1013.5
20260505082025 12 360 0.0 0.0 0.00 0.00 0.00 86 1013.5
20260505081522 12 250 0.0 0.0 0.00 0.00 0.00 86 1013.5
20260505081042 12 195 0.0 0.0 0.00 0.00 0.00 86 1013.5
20260505080623 12 296 0.0 0.0 0.00 0.00 0.00 86 1013.5
20260505080141 11 292 0.0 0.0 0.00 0.00 0.00 87 1013.5
20260505075722 11 258 0.0 0.0 0.00 0.00 0.00 87 1013.5
20260505075319 11 105 0.0 0.0 0.00 0.00 0.00 87 1013.5
20260505074537 11 269 0.0 0.0 0.00 0.00 0.00 86 1013.2
20260505074041 11 271 0.0 0.0 0.00 0.00 0.00 86 1013.2
20260505073640 11 239 0.0 0.0 0.00 0.00 0.00 86 1013.2
20260505073221 11 238 0.0 0.0 0.00 0.00 0.00 86 1013.2
20260505072738 11 238 0.0 1.6 0.00 0.00 0.00 86 1013.2
20260505072320 11 312 0.0 0.0 0.00 0.00 0.00 87 1013.2
20260505071620 11 19 0.0 0.0 0.00 0.00 0.00 87 1013.2
20260505071142 11 355 0.0 0.0 0.00 0.00 0.00 87 1013.5
20260505070738 11 40 0.0 0.0 0.00 0.00 0.00 87 1013.5
20260505070319 11 315 0.0 0.0 0.00 0.00 0.00 87 1013.5
20260505065540 11 317 0.0 0.0 0.00 0.00 0.00 87 1013.5
20260505065039 11 51 0.0 0.0 0.00 0.00 0.00 88 1013.5
20260505064636 11 337 0.0 3.2 0.00 0.00 0.00 88 1013.5
20260505064219 11 360 0.0 3.2 0.00 0.00 0.00 88 1013.5
20260505063738 11 117 0.0 0.0 0.00 0.00 0.00 88 1013.5
20260505063321 11 42 0.0 0.0 0.00 0.00 0.00 89 1013.5
20260505062538 11 126 0.0 0.0 0.00 0.00 0.00 89 1013.5
20260505062137 11 124 0.0 0.0 0.00 0.00 0.00 89 1013.5
20260505061737 11 124 0.0 0.0 0.00 0.00 0.00 89 1013.5
20260505061318 11 348 0.0 0.0 0.00 0.00 0.00 89 1013.5
20260505060518 11 74 0.0 0.0 0.00 0.00 0.00 90 1013.5
20260505060019 11 73 0.0 0.0 0.00 0.00 0.00 90 1013.2
20260505055519 11 74 0.0 0.0 0.00 0.00 0.00 90 1013.2
20260505055021 11 278 0.0 0.0 0.00 0.00 0.00 90 1013.2
20260505054542 11 278 0.0 0.0 0.00 0.00 0.00 90 1013.2
20260505054141 11 278 0.0 0.0 0.00 0.00 0.00 90 1013.5
20260505053735 11 278 0.0 0.0 0.00 0.00 0.00 90 1013.5
20260505053317 11 278 0.0 0.0 0.00 0.00 0.00 90 1013.5
20260505052538 11 278 0.0 0.0 0.00 0.00 0.00 90 1013.5
20260505052119 11 279 0.0 0.0 0.00 0.00 0.00 90 1013.5
20260505051637 11 279 0.0 0.0 0.00 0.00 0.00 90 1013.5
20260505051219 11 279 0.0 0.0 0.00 0.00 0.00 90 1013.5
20260505050741 11 292 0.0 0.0 0.00 0.00 0.00 90 1013.5
20260505050318 11 314 0.0 0.0 0.00 0.00 0.00 90 1013.5
20260505041618 11 69 0.0 0.0 0.00 0.00 0.00 90 1013.5
20260505041136 11 69 0.0 0.0 0.00 0.00 0.00 90 1013.5
20260505040720 11 69 0.0 0.0 0.00 0.00 0.00 90 1013.5
20260505040245 11 69 0.0 0.0 0.00 0.00 0.00 90 1013.5
20260505035816 11 69 0.0 0.0 0.00 0.00 0.00 90 1013.5
20260505035041 11 67 0.0 0.0 0.00 0.00 0.00 90 1013.5
20260505034641 11 65 0.0 0.0 0.00 0.00 0.00 90 1013.5
20260505034216 11 64 0.0 0.0 0.00 0.00 0.00 90 1013.5
20260505033739 11 46 0.0 0.0 0.00 0.00 0.00 90 1013.5
20260505033315 11 46 0.0 0.0 0.00 0.00 0.00 90 1013.5
20260505032516 11 46 0.0 0.0 0.00 0.00 0.00 90 1013.5
20260505032038 11 46 0.0 0.0 0.00 0.00 0.00 89 1013.5
20260505031616 11 46 0.0 0.0 0.00 0.00 0.00 89 1013.5
20260505031215 11 46 0.0 0.0 0.00 0.00 0.00 89 1013.5
20260505030742 11 46 0.0 0.0 0.00 0.00 0.00 89 1013.5
20260505030314 11 46 0.0 0.0 0.00 0.00 0.00 89 1013.9
20260505025514 11 46 0.0 0.0 0.00 0.00 0.00 89 1013.9
20260505025043 11 46 0.0 0.0 0.00 0.00 0.00 89 1013.9
20260505024639 11 46 0.0 0.0 0.00 0.00 0.00 89 1013.5
20260505024214 11 46 0.0 0.0 0.00 0.00 0.00 89 1013.5
20260505023741 11 46 0.0 0.0 0.00 0.00 0.00 89 1013.5
20260505023313 11 46 0.0 0.0 0.00 0.00 0.00 89 1013.5
20260505022537 11 46 0.0 0.0 0.00 0.00 0.00 89 1013.5
20260505022044 11 46 0.0 0.0 0.00 0.00 0.00 89 1013.5
20260505021639 11 46 0.0 0.0 0.00 0.00 0.00 89 1013.5
20260505021212 11 46 0.0 0.0 0.00 0.00 0.00 89 1013.5
20260505020744 11 46 0.0 0.0 0.00 0.00 0.00 89 1013.5
20260505020312 11 46 0.0 0.0 0.00 0.00 0.00 90 1013.9
20260505015515 11 46 0.0 0.0 0.00 0.00 0.00 89 1013.9
20260505015042 11 46 0.0 0.0 0.00 0.00 0.00 89 1013.9
20260505014613 11 46 0.0 0.0 0.00 0.00 0.00 89 1013.9
20260505014142 11 46 0.0 0.0 0.00 0.00 0.00 89 1013.9
20260505013738 11 46 0.0 0.0 0.00 0.00 0.00 88 1013.9
20260505013314 11 46 0.0 0.0 0.00 0.00 0.00 88 1014.2
20260505012543 11 46 0.0 0.0 0.00 0.00 0.00 87 1014.2
20260505012037 11 46 0.0 0.0 0.00 0.00 0.00 87 1013.9
20260505011613 11 46 0.0 0.0 0.00 0.00 0.00 87 1013.9
20260505011141 11 48 0.0 0.0 0.00 0.00 0.00 87 1013.9
20260505010737 11 48 0.0 0.0 0.00 0.00 0.00 87 1014.2
20260505010314 11 50 0.0 0.0 0.00 0.00 0.00 87 1014.2
20260505005513 12 50 0.0 0.0 0.00 0.00 0.00 86 1014.2
20260505005036 12 50 0.0 0.0 0.00 0.00 0.00 86 1014.2
20260505004539 12 50 0.0 0.0 0.00 0.00 0.00 86 1014.2
20260505004039 12 50 0.0 0.0 0.00 0.00 0.00 86 1014.2
20260505003537 12 355 0.0 1.6 0.00 0.00 0.00 86 1014.2
20260505003042 12 355 0.0 1.6 0.00 0.00 0.00 86 1014.2
20260505002541 12 355 0.0 0.0 0.00 0.00 0.00 86 1014.2
20260505002042 12 355 0.0 0.0 0.00 0.00 0.00 86 1014.2
20260505001613 12 36 0.0 0.0 0.00 0.00 0.00 86 1014.6
20260505001141 12 37 0.0 0.0 0.00 0.00 0.00 85 1014.2
20260505000715 12 37 0.0 1.6 0.00 0.00 0.00 85 1014.6
20260505000239 12 37 0.0 0.0 0.00 0.00 0.00 85 1014.6
20260504235814 12 38 0.0 0.0 0.00 0.00 0.00 85 1014.6
20260504235040 12 37 0.0 0.0 0.00 0.00 0.00 84 1014.6
20260504234543 12 37 0.0 0.0 0.00 0.00 0.00 84 1014.6
20260504234113 12 31 0.0 0.0 0.00 0.00 0.00 84 1014.2
20260504233643 12 67 0.0 0.0 0.00 0.00 0.00 84 1014.6
20260504233215 12 23 0.0 0.0 0.00 0.00 0.00 84 1014.6
20260504232743 12 46 0.0 0.0 0.00 0.00 0.00 84 1014.6
20260504232314 12 167 0.0 0.0 0.00 0.00 0.00 84 1014.6
20260504231539 12 212 0.0 0.0 0.00 0.00 0.00 84 1014.6
20260504231044 12 52 0.0 0.0 0.00 0.00 0.00 84 1014.6
20260504230612 12 55 0.0 0.0 0.00 0.00 0.00 84 1014.6
20260504230212 12 84 0.0 0.0 0.00 0.00 0.00 84 1014.6
20260504225739 13 65 0.0 0.0 0.00 0.00 0.00 84 1014.6
20260504225313 13 44 0.0 0.0 0.00 0.00 0.00 84 1014.6
20260504224540 13 5 0.0 0.0 0.00 0.00 0.00 84 1014.6
20260504224044 13 332 0.0 0.0 0.00 0.00 0.00 84 1014.6
20260504223541 13 65 0.0 0.0 0.00 0.00 0.00 84 1014.6
20260504223111 13 66 0.0 0.0 0.00 0.00 0.00 84 1014.6
20260504222640 13 205 0.0 1.6 0.00 0.00 0.00 84 1014.6
20260504222214 13 292 0.0 0.0 0.00 0.00 0.00 84 1014.9
20260504221811 13 301 0.0 0.0 0.00 0.00 0.00 84 1014.9
20260504221037 13 17 0.0 0.0 0.00 0.00 0.00 85 1014.9
20260504220541 13 17 0.0 0.0 0.00 0.00 0.00 85 1014.9
20260504220114 13 346 0.0 0.0 0.00 0.00 0.00 85 1014.9
20260504215712 13 346 0.0 0.0 0.00 0.00 0.00 85 1014.9
20260504215241 13 34 0.0 0.0 0.00 0.00 0.00 85 1014.9
20260504214810 13 28 0.0 0.0 0.00 0.00 0.00 85 1014.9
20260504214111 13 335 0.0 0.0 0.00 0.00 0.00 85 1014.9
20260504213641 13 123 0.0 1.6 0.00 0.00 0.00 86 1014.9
20260504213237 13 80 0.0 0.0 0.00 0.00 0.00 86 1014.9
20260504212813 13 107 0.0 0.0 0.00 0.00 0.00 86 1014.9
20260504212044 13 93 0.0 0.0 0.00 0.00 0.00 86 1014.6
20260504211611 13 93 0.0 0.0 0.00 0.00 0.00 86 1014.6
20260504211137 13 93 0.0 0.0 0.00 0.00 0.00 86 1014.6
20260504210713 13 93 0.0 0.0 0.00 0.00 0.00 86 1014.6
20260504210242 13 93 0.0 0.0 0.00 0.00 0.00 86 1014.6
20260504205541 13 93 0.0 0.0 0.00 0.00 0.00 86 1014.6
20260504205044 13 94 0.0 0.0 0.00 0.00 0.00 86 1014.6
20260504204615 13 94 0.0 0.0 0.00 0.00 0.00 86 1014.6
20260504204139 13 94 0.0 0.0 0.00 0.00 0.00 86 1014.6
20260504203740 13 94 0.0 0.0 0.00 0.00 0.00 86 1014.6
20260504203313 13 94 0.0 0.0 0.00 0.00 0.00 86 1014.6
20260504202540 13 94 0.0 0.0 0.00 0.00 0.00 86 1014.6
20260504202041 13 94 0.0 0.0 0.00 0.00 0.00 86 1014.6
20260504201543 13 94 0.0 0.0 0.00 0.00 0.00 85 1014.6
20260504201117 13 94 0.0 0.0 0.00 0.00 0.00 85 1014.6
20260504200641 13 94 0.0 0.0 0.00 0.00 0.00 86 1014.6
20260504200237 13 94 0.0 0.0 0.00 0.00 0.00 85 1014.6
20260504195815 13 93 0.0 0.0 0.00 0.00 0.00 85 1014.6
20260504195113 13 76 0.0 0.0 0.00 0.00 0.00 85 1014.6
20260504194642 13 76 0.0 0.0 0.00 0.00 0.00 85 1014.6
20260504194214 13 76 0.0 0.0 0.00 0.00 0.00 85 1014.6
20260504193744 13 76 0.0 0.0 0.00 0.00 0.00 84 1014.2
20260504193313 13 76 0.0 0.0 0.00 0.00 0.00 83 1014.2
20260504192538 13 73 0.0 0.0 0.00 0.00 0.00 83 1014.2
20260504192043 13 74 0.0 0.0 0.00 0.00 0.00 82 1014.2
20260504191541 13 74 0.0 0.0 0.00 0.00 0.00 82 1014.2
20260504191113 13 74 0.0 0.0 0.00 0.00 0.00 82 1014.2
20260504190644 14 74 0.0 0.0 0.00 0.00 0.00 82 1014.2
20260504190239 14 57 0.0 0.0 0.00 0.00 0.00 82 1014.2
20260504185812 14 104 0.0 0.0 0.00 0.00 0.00 81 1014.2
20260504185044 14 25 0.0 0.0 0.00 0.00 0.00 81 1014.2
20260504184636 14 147 0.0 0.0 0.00 0.00 0.00 80 1014.2